FW0822 Weather Reports


time (UTC)temp
C
wind
direction
speed
KPH
gust
KPH
rain 1hr
cm
rain 24hr
cm
rain mn
cm
humidity
%
barometer
mb
20260510190011 31 226 0.0 6.4 0.00 0.03 0.00 27 1015.6
20260510184507 31 217 0.0 0.0 0.00 0.03 0.00 29 1015.5
20260510183005 31 196 0.0 0.0 0.00 0.03 0.00 29 1015.8
20260510181502 30 232 0.0 0.0 0.00 0.03 0.00 32 1015.9
20260510180104 29 236 0.0 0.0 0.00 0.03 0.00 33 1016.1
20260510174606 28 237 0.0 1.6 0.00 0.03 0.00 31 1016.4
20260510173058 28 217 0.0 1.6 0.00 0.03 0.00 33 1016.4
20260510171550 27 213 0.0 0.0 0.00 0.03 0.00 37 1016.4
20260510170100 26 213 0.0 0.0 0.00 0.03 0.00 38 1016.5
20260510164542 25 219 0.0 0.0 0.00 0.03 0.00 38 1016.8
20260510163040 25 219 0.0 0.0 0.00 0.03 0.00 41 1016.9
20260510161537 24 219 0.0 0.0 0.00 0.03 0.00 43 1017.0
20260510160034 23 216 0.0 0.0 0.00 0.03 0.00 47 1016.9
20260510154548 22 216 0.0 0.0 0.00 0.03 0.00 52 1017.0
20260510153030 22 216 0.0 0.0 0.00 0.03 0.00 54 1017.0
20260510151525 21 216 0.0 0.0 0.00 0.03 0.00 56 1017.1
20260510150020 20 216 0.0 1.6 0.00 0.03 0.00 58 1017.2
20260510144532 19 215 0.0 0.0 0.00 0.03 0.00 69 1017.3
20260510143025 18 215 0.0 0.0 0.00 0.03 0.00 72 1017.2
20260510141610 17 215 0.0 0.0 0.00 0.03 0.00 80 1017.2
20260510140006 17 215 0.0 0.0 0.00 0.03 0.00 86 1017.1
20260510134502 16 215 0.0 0.0 0.00 0.03 0.00 90 1017.0
20260510133002 16 229 0.0 0.0 0.00 0.03 0.00 92 1017.0
20260510131600 16 228 0.0 0.0 0.00 0.03 0.00 93 1017.1
20260510130101 15 228 0.0 0.0 0.00 0.03 0.00 93 1017.1
20260510124612 15 228 0.0 0.0 0.00 0.03 0.00 93 1016.8
20260510123058 15 228 0.0 0.0 0.00 0.03 0.00 92 1016.7
20260510121556 14 228 0.0 0.0 0.00 0.03 0.00 92 1016.4
20260510120054 13 228 0.0 0.0 0.00 0.03 0.00 91 1016.2
20260510114552 13 228 0.0 0.0 0.00 0.03 0.00 89 1016.0
20260510113051 13 227 0.0 0.0 0.00 0.03 0.00 89 1015.8
20260510111549 13 228 0.0 0.0 0.00 0.03 0.00 89 1015.5
20260510110047 13 227 0.0 0.0 0.00 0.03 0.00 88 1015.3
20260510104547 13 227 0.0 0.0 0.00 0.03 0.00 88 1015.0
20260510103043 13 228 0.0 0.0 0.00 0.03 0.00 88 1014.8
20260510101542 14 228 0.0 0.0 0.00 0.03 0.00 88 1014.7
20260510100039 14 228 0.0 0.0 0.00 0.03 0.00 88 1014.4
20260510094548 14 228 0.0 0.0 0.00 0.03 0.00 88 1014.3
20260510093054 15 227 0.0 0.0 0.00 0.03 0.00 88 1014.3
20260510091543 15 227 0.0 0.0 0.00 0.03 0.00 88 1014.2
20260510090034 15 228 0.0 0.0 0.00 0.03 0.00 88 1014.0
20260510084533 15 228 0.0 0.0 0.00 0.03 0.00 88 1013.7
20260510083031 15 227 0.0 0.0 0.00 0.03 0.00 87 1013.9
20260510081529 15 228 0.0 0.0 0.00 0.03 0.00 87 1013.5
20260510080026 15 228 0.0 0.0 0.00 0.03 0.00 87 1013.4
20260510074526 15 228 0.0 0.0 0.00 0.03 0.00 86 1013.3
20260510073033 16 228 0.0 0.0 0.00 0.03 0.00 87 1013.3
20260510071524 16 228 0.0 0.0 0.00 0.03 0.00 86 1013.1
20260510070029 16 227 0.0 0.0 0.03 0.03 0.03 85 1013.1
20260510064522 16 228 0.0 0.0 0.03 0.03 0.03 85 1013.1
20260510063023 16 227 0.0 0.0 0.03 0.03 0.03 85 1013.1
20260510061521 16 228 0.0 0.0 0.03 0.03 0.03 84 1013.3
20260510060021 17 228 0.0 0.0 0.03 0.03 0.03 84 1013.4
20260510054521 17 227 0.0 0.0 0.00 0.00 0.00 83 1013.2
20260510053044 17 228 0.0 0.0 0.00 0.00 0.00 83 1013.5
20260510051522 17 227 0.0 0.0 0.00 0.00 0.00 83 1013.5
20260510050021 17 228 0.0 0.0 0.00 0.00 0.00 83 1013.5
20260510044521 17 228 0.0 0.0 0.00 0.00 0.00 83 1013.6
20260510043037 17 228 0.0 0.0 0.00 0.00 0.00 82 1013.6
20260510041526 17 228 0.0 0.0 0.00 0.00 0.00 81 1013.6
20260510040033 18 228 0.0 0.0 0.00 0.00 0.00 81 1013.4
20260510034520 18 227 0.0 0.0 0.00 0.00 0.00 80 1013.6
20260510033019 18 227 0.0 0.0 0.00 0.00 0.00 80 1013.6
20260510031523 18 228 0.0 0.0 0.00 0.00 0.00 80 1013.6
20260510030018 18 228 0.0 0.0 0.00 0.00 0.00 79 1013.4
20260510024618 18 228 0.0 0.0 0.00 0.00 0.00 79 1013.4
20260510023017 18 228 0.0 0.0 0.00 0.00 0.00 78 1013.4
20260510021535 19 228 0.0 0.0 0.00 0.00 0.00 78 1013.2
20260510020022 19 228 0.0 0.0 0.00 0.00 0.00 78 1013.1
20260510014523 19 227 0.0 0.0 0.00 0.00 0.00 77 1012.9
20260510013025 20 219 0.0 0.0 0.00 0.00 0.00 76 1012.6
20260510011516 20 219 0.0 0.0 0.00 0.00 0.00 74 1012.4
20260510010016 20 219 0.0 0.0 0.00 0.03 0.00 74 1012.1
20260510004518 20 219 0.0 0.0 0.00 0.03 0.00 73 1012.0
20260510003015 21 219 0.0 0.0 0.00 0.03 0.00 72 1011.7
20260510001515 21 219 0.0 0.0 0.00 0.03 0.00 72 1011.6
20260510000018 21 223 0.0 0.0 0.00 0.03 0.00 71 1011.4
20260509234514 21 223 0.0 0.0 0.00 0.03 0.00 71 1011.4
20260509233013 22 220 0.0 0.0 0.00 0.03 0.00 70 1011.1
20260509231515 22 213 0.0 0.0 0.00 0.03 0.00 69 1011.1
20260509230015 22 252 0.0 0.0 0.00 0.03 0.00 68 1011.0
20260509224513 22 280 0.0 0.0 0.00 0.03 0.00 67 1010.7
20260509223013 22 230 0.0 0.0 0.00 0.03 0.00 67 1010.8
20260509221514 22 215 0.0 6.4 0.00 0.03 0.00 68 1010.7
20260509220015 22 223 0.0 0.0 0.00 0.03 0.00 68 1010.8
20260509214508 22 224 0.0 0.0 0.00 0.03 0.00 70 1010.9
20260509213018 22 226 0.0 0.0 0.00 0.03 0.00 69 1010.7
20260509211508 22 244 0.0 1.6 0.00 0.03 0.00 69 1010.8
20260509210007 22 247 0.0 1.6 0.00 0.03 0.00 67 1010.6
20260509204506 22 259 0.0 4.8 0.00 0.03 0.00 66 1010.5
20260509203004 21 249 0.0 3.2 0.00 0.03 0.00 68 1010.8
20260509201500 21 225 0.0 9.7 0.00 0.03 0.00 68 1010.8
20260509200100 21 192 0.0 0.0 0.00 0.05 0.00 69 1010.8
20260509194558 21 235 0.0 0.0 0.00 0.05 0.00 70 1010.9
20260509193104 21 225 0.0 0.0 0.00 0.05 0.00 69 1011.2
20260509191607 21 206 0.0 0.0 0.00 0.05 0.00 70 1011.0